Home > Weather > Acharnes > Past weeks

Flag for Greece Past Weather in Acharnes, Greece — Yesterday and Last 2 Weeks

Now
82 °F

Passing clouds.


Feels Like: 82 °F
Forecast: 70 / 85 °F
Wind: 9 mph from Northwest

Location: Elefsis Airport

Current Time: Jun 26, 2016 at 12:31:55 AM

Latest Report: Jun 25, 2016 at 11:50 PM


Visibility: N/A

Pressure: 29.74 "Hg

Humidity: 45%

Dew Point: 59 °F

Location of AcharnesLocation

Past Weather in Acharnes — Graph

°F

Acharnes Temperature Yesterday

Maximum temperature yesterday: 93 °F (at 5:20 PM)
Minimum temperature yesterday: 79 °F (at 5:20 AM)
Average temperature yesterday: 86 °F

High & Low Weather Summary for the Past Weeks

 TemperatureHumidityPressure
High104 °F (Jun 19, 1:20 PM)88% (Jun 14, 1:50 AM)30.04 "Hg (Jun 14, 1:50 AM)
Low61 °F (Jun 11, 4:20 AM)14% (Jun 19, 2:20 PM)29.53 "Hg (Jun 14, 1:50 PM)
Average84 °F39%29.85 "Hg
* Reported Jun 10 11:20 PM — Jun 25 11:20 PM, Acharnes, Weather by CustomWeather, © 2016

Note: Actual official high and low records may vary slightly from our data, if they occured in-between our weather recording intervals... More about our weather records

Advertising

Acharnes Weather History for the Previous 24 Hours

Scroll right to see more
 ConditionsComfort  
Time TempWeatherWind HumidityBarometerVisibility
11:20 PM
Sat, Jun 25
82 °FPassing clouds.9 mph45%29.74 "HgN/A
10:50 PM84 °FPassing clouds.9 mph43%29.71 "HgN/A
10:20 PM84 °FPassing clouds.8 mph43%29.71 "HgN/A
9:50 PM84 °FScattered clouds.10 mph43%29.71 "HgN/A
9:20 PM86 °FScattered clouds.9 mph35%29.71 "HgN/A
8:50 PM88 °FScattered clouds.8 mph31%29.71 "HgN/A
8:20 PM88 °FScattered clouds.10 mph31%29.71 "HgN/A
7:50 PM88 °FScattered clouds.10 mph31%29.71 "HgN/A
7:20 PM90 °FPassing clouds.14 mph29%29.71 "HgN/A
6:50 PM90 °FPassing clouds.14 mph31%29.68 "HgN/A
6:20 PM91 °FPassing clouds.12 mph32%29.68 "HgN/A
5:50 PM91 °FPassing clouds.13 mph32%29.71 "HgN/A
5:20 PM93 °FPassing clouds.14 mph30%29.71 "HgN/A
4:50 PM91 °FScattered clouds.15 mph34%29.71 "HgN/A
4:20 PM91 °FScattered clouds.14 mph34%29.71 "HgN/A
3:50 PM91 °FScattered clouds.16 mph34%29.74 "HgN/A
3:20 PM91 °FScattered clouds.17 mph34%29.74 "HgN/A
2:50 PM91 °FPassing clouds.14 mph34%29.74 "HgN/A
2:20 PM91 °FPassing clouds.16 mph34%29.74 "HgN/A
1:50 PM91 °FPassing clouds.17 mph34%29.74 "HgN/A
1:20 PM91 °FPassing clouds.17 mph36%29.74 "HgN/A
12:50 PM90 °FPassing clouds.17 mph38%29.77 "HgN/A
12:20 PM90 °FPassing clouds.16 mph38%29.77 "HgN/A
11:50 AM86 °FPassing clouds.16 mph49%29.77 "HgN/A
11:20 AM88 °FScattered clouds.17 mph40%29.77 "HgN/A
10:50 AM86 °FScattered clouds.15 mph43%29.77 "HgN/A
10:20 AM86 °FScattered clouds.15 mph43%29.77 "HgN/A
9:50 AM84 °FScattered clouds.15 mph48%29.77 "HgN/A
9:20 AM84 °FScattered clouds.15 mph48%29.77 "HgN/A
8:50 AM81 °FScattered clouds.15 mph58%29.74 "HgN/A
8:20 AM81 °FScattered clouds.15 mph54%29.77 "HgN/A
7:50 AM81 °FScattered clouds.12 mph51%29.77 "HgN/A
7:20 AM79 °FScattered clouds.13 mph58%29.77 "HgN/A
6:50 AM79 °FPassing clouds.10 mph54%29.77 "HgN/A
6:20 AM79 °FPassing clouds.12 mph54%29.77 "HgN/A
5:50 AM79 °FPassing clouds.13 mph54%29.77 "HgN/A
5:20 AM79 °FClear.14 mph54%29.74 "Hg10 mi
4:50 AM81 °FClear.12 mph51%29.74 "Hg10 mi
4:20 AM81 °FClear.14 mph48%29.74 "Hg10 mi
3:50 AM81 °FClear.12 mph48%29.74 "Hg10 mi
2:50 AM82 °FClear.8 mph45%29.77 "Hg10 mi
2:20 AM82 °FClear.8 mph45%29.77 "Hg10 mi
1:50 AM82 °FClear.6 mph45%29.77 "Hg10 mi
1:20 AM84 °FClear.5 mph45%29.77 "Hg10 mi
12:50 AM84 °FClear.7 mph45%29.77 "Hg10 mi
12:20 AM84 °FClear.8 mph45%29.77 "Hg10 mi
Weather by CustomWeather, © 2016

See weather overviewHow to use our weather pages